Location: Stockholm
(59.3330°N, 18.0500°E)
Time: 11:45:55
(UTC+01:00)

FENGYUN 1C DEB - Pass Details

Date: 09 December 2023
Orbit: 841 x 915 km, 98.8° (Epoch: 21 February)

Event Time Altitude Azimuth Distance (km) Brightness Sun altitude
Exits shadow 17:08:48 12° 25° (NNE) 2,370 ? -15.7°
Drops below altitude 10° 17:10:23 10° 8° (N) 2,482 ? -15.8°
Sets 17:14:33 0° 337° (NNW) 3,431 ? -16.3°
